Terminal Aerodrome Forecast
Issued by NWS

Home | Current Version | Previous Version | Text Only | Print | Product List | Glossary On
Versions: 1 2 3 4 5 6 7 8 9 10 11 12 13 14 15 16 17 18 19 20
179
FTUS42 KJAX 110229 AAC
TAFCRG
TAF AMD
KCRG 110229Z 1102/1124 03009KT P6SM VCSH SCT025 BKN040
     FM111000 08007KT P6SM VCSH BKN025 OVC040
     FM111700 13008KT P6SM VCSH BKN040=

USA.gov is the U.S. government's official web portal to all federal, state and local government web resources and services.